Location: LDNL
(36.4545°S, 141.6685°E)
Time: 04:18:42
(UTC+11:00)

A-11 Canister half - Pass Details

Date: 11 August 2022
Orbit: 1524 x 1684 km, 47.3° (Epoch: 05 October)

Event Time Altitude Azimuth Distance (km) Brightness Sun altitude
Rises 02:13:06 0° 242° (WSW) 4,740 - -60.3°
Reaches altitude 10° 02:16:32 10° 251° (WSW) 3,772 - -59.7°
Maximum altitude 02:24:38 32° 310° (NW) 2,482 - -58.4°
Drops below altitude 10° 02:32:56 10° 8° (N) 3,856 - -57.0°
Sets 02:36:32 0° 17° (NNE) 4,859 - -56.4°
